sat.trackr.live / text

‹ back to catalog

YAOGAN-39 02C

NORAD 57890 · 2023-145E

PAYLOAD ACTIVE UNKNOWN

§ Identity

Operator
Country
PRC
Launch date
2023-09-17
Launch site
XICLF
Launch vehicle
Mass (kg)
RCS (m²)

External: N2YO · Heavens-Above · Gunter

§ Orbital elements

Epoch: 2026-05-25T01:35:27.806784Z

Period
94.89 min
Inclination
34.9951°
Eccentricity
0.0006075
Mean motion
15.17547765 rev/d
Perigee alt
509.1 km
Apogee alt
517.4 km
Semi-major
6,891.4 km
B*
2.7741e-4
RAAN
8.5708°
Arg perigee
218.5759°
Mean anomaly
141.4521°
Rev number
14,934

§ Raw data

YAOGAN-39 02C1 57890U 23145E   26145.06629406  .00005670  00000+0  27741-3 0  99962 57890  34.9951   8.5708 0006075 218.5759 141.4521 15.17547765149342

JSON: /api/v1/satellites/57890 · /tle

For live sub-satellite position, see the globe view (requires WebGL).

§ Visibility from observer

Set your observer location to see the next 7 days of passes ≥ 10°. The values pass through the URL so the page stays shareable.

No JS? Fill the form by hand. The geolocation button needs JavaScript.